Weather History for KOLU - April, 2014

Change the Weather History Date:

Thursday, April 3, 2014

  Actual Average Record
Temperature  
Mean Temperature 36 °F -  
Max Temperature 39 °F 55 °F 81 °F (1978)
Min Temperature 33 °F 33 °F 4 °F (1975)
Degree Days  
Heating Degree Days 29    
Moisture  
Dew Point 32 °F    
Average Humidity 83    
Maximum Humidity 87    
Minimum Humidity 75    
Precipitation  
Precipitation 0.19 in - - ()
Sea Level Pressure  
Sea Level Pressure 29.78 in    
Wind  
Wind Speed 12 mph (North)    
Max Wind Speed 23 mph    
Max Gust Speed 31 mph    
Visibility 4 miles    
Events      
Averages and records for this station are not official NWS values.
T = Trace of Precipitation, MM = Missing Value Source: NWS Daily Summary

Daily Weather History Graph

Daily Weather History Graph

Search for Another Location

Airport or City:

Trip Planner

Search our weather history database for the weather conditions in past years. The results will help you decide how hot, cold, wet, or windy it might be!

Date:

Astronomy

Apr. 03, 2014 Rise Set
Actual Time 7:09 AM CDT 7:56 PM CDT
Civil Twilight 6:41 AM CDT 8:24 PM CDT
Nautical Twilight 6:07 AM CDT 8:58 PM CDT
Astronomical Twilight 5:33 AM CDT 9:32 PM CDT
Moon 9:36 AM CDT (4/3) No Moon Set
Length of Visible Light 13h 43m
Length of Day
12h 47m
Waxing Crescent, 17% of the Moon is Illuminated
Apr 3
Waxing Crescent
Apr 7
First Quarter
Apr 15
Full
Apr 22
Last Quarter
Apr 29
New

Hourly Weather History & Observations

Time (CDT) Temp. Windchill Dew Point Humidity Pressure Visibility Wind Dir Wind Speed Gust Speed Precip Events Conditions
12:15 AM 39.2 °F 33.0 °F 33.8 °F 81% 29.83 in 2.0 mi NE 9.2 mph - N/A   Overcast
12:35 AM 39.2 °F 33.6 °F 33.8 °F 81% 29.80 in 2.0 mi NE 8.1 mph - N/A   Overcast
12:55 AM 39.2 °F 33.6 °F 33.8 °F 81% 29.79 in 2.0 mi NNE 8.1 mph - N/A   Overcast
1:15 AM 39.2 °F 33.6 °F 35.6 °F 87% 29.79 in 2.5 mi NNE 8.1 mph - N/A   Overcast
1:35 AM 39.2 °F 33.6 °F 35.6 °F 87% 29.80 in 2.5 mi NNE 8.1 mph - N/A   Overcast
1:55 AM 39.2 °F 33.0 °F 35.6 °F 87% 29.78 in 2.0 mi NNE 9.2 mph - N/A   Overcast
2:15 AM 39.2 °F 32.0 °F 35.6 °F 87% 29.78 in 2.0 mi North 11.5 mph - N/A   Overcast
2:35 AM 39.2 °F 33.6 °F 33.8 °F 81% 29.81 in 2.0 mi NNW 8.1 mph - N/A   Overcast
2:55 AM 39.2 °F 32.0 °F 33.8 °F 81% 29.78 in 2.5 mi NNE 11.5 mph - N/A   Overcast
3:15 AM 37.4 °F 29.3 °F 33.8 °F 87% 29.77 in 2.5 mi NNE 12.7 mph 18.4 mph N/A   Overcast
3:35 AM 37.4 °F 31.4 °F 33.8 °F 87% 29.80 in 3.0 mi NNE 8.1 mph - N/A   Overcast
3:55 AM 37.4 °F 29.3 °F 33.8 °F 87% 29.76 in 6.0 mi NNE 12.7 mph - N/A   Overcast
4:15 AM 37.4 °F 27.8 °F 33.8 °F 87% 29.75 in 5.0 mi North 17.3 mph - N/A   Overcast
4:35 AM 37.4 °F 30.8 °F 33.8 °F 87% 29.80 in 3.0 mi North 9.2 mph - N/A   Overcast
4:55 AM 37.4 °F 28.2 °F 33.8 °F 87% 29.74 in 2.5 mi North 16.1 mph 21.9 mph N/A   Overcast
5:15 AM 37.4 °F 28.9 °F 33.8 °F 87% 29.75 in 2.5 mi NNE 13.8 mph - N/A   Overcast
5:35 AM 37.4 °F 29.8 °F 33.8 °F 87% 29.76 in 3.0 mi NNE 11.5 mph 17.3 mph N/A   Overcast
5:55 AM 37.4 °F 30.3 °F 33.8 °F 87% 29.76 in 3.0 mi NNE 10.4 mph - N/A   Overcast
6:15 AM 37.4 °F 29.8 °F 33.8 °F 87% 29.76 in 4.0 mi NNE 11.5 mph - N/A   Overcast
6:35 AM 37.4 °F 28.9 °F 33.8 °F 87% 29.75 in 4.0 mi NNE 13.8 mph - N/A   Overcast
6:55 AM 37.4 °F 29.3 °F 33.8 °F 87% 29.76 in 4.0 mi NNE 12.7 mph - N/A   Overcast
7:15 AM 37.4 °F 28.9 °F 33.8 °F 87% 29.75 in 3.0 mi NNE 13.8 mph 20.7 mph N/A   Overcast
7:35 AM 37.4 °F 29.8 °F 33.8 °F 87% 29.77 in 2.0 mi NNE 11.5 mph - N/A   Overcast
7:55 AM 37.4 °F 29.3 °F 33.8 °F 87% 29.77 in 2.5 mi North 12.7 mph - N/A   Overcast
8:15 AM 37.4 °F 28.5 °F 33.8 °F 87% 29.77 in 3.0 mi North 15.0 mph - N/A   Overcast
8:35 AM 37.4 °F 28.9 °F 32.0 °F 81% 29.77 in 2.5 mi North 13.8 mph - N/A   Overcast
8:55 AM 37.4 °F 28.9 °F 32.0 °F 81% 29.78 in 2.0 mi North 13.8 mph - N/A   Overcast
9:15 AM 35.6 °F 25.9 °F 32.0 °F 87% 29.79 in 1.8 mi North 16.1 mph - N/A   Overcast
9:35 AM 35.6 °F 25.5 °F 32.0 °F 87% 29.76 in 1.8 mi North 17.3 mph - 0.02 in   Overcast
9:55 AM 35.6 °F 25.9 °F 32.0 °F 87% 29.77 in 2.5 mi North 16.1 mph 19.6 mph 0.02 in   Overcast
10:15 AM 35.6 °F 26.2 °F 32.0 °F 87% 29.77 in 3.0 mi North 15.0 mph 18.4 mph N/A   Overcast
10:35 AM 35.6 °F 25.9 °F 32.0 °F 87% 29.77 in 2.5 mi North 16.1 mph - 0.04 in   Overcast
10:55 AM 37.4 °F 29.3 °F 32.0 °F 81% 29.78 in 3.0 mi North 12.7 mph - 0.05 in   Overcast
11:15 AM 37.4 °F 28.2 °F 32.0 °F 81% 29.77 in 3.0 mi North 16.1 mph 20.7 mph N/A   Overcast
11:35 AM 37.4 °F 28.9 °F 32.0 °F 81% 29.77 in 3.0 mi North 13.8 mph - N/A   Overcast
11:55 AM 37.4 °F 30.3 °F 32.0 °F 81% 29.77 in 3.0 mi North 10.4 mph 19.6 mph N/A   Overcast
12:15 PM 37.4 °F 28.2 °F 32.0 °F 81% 29.77 in 3.0 mi North 16.1 mph - N/A   Overcast
12:35 PM 37.4 °F 28.9 °F 32.0 °F 81% 29.76 in 3.0 mi North 13.8 mph - N/A   Overcast
12:55 PM 37.4 °F 27.8 °F 32.0 °F 81% 29.76 in 3.0 mi North 17.3 mph 21.9 mph 0.01 in   Overcast
1:15 PM 37.4 °F 28.9 °F 32.0 °F 81% 29.75 in 3.0 mi North 13.8 mph 20.7 mph N/A   Overcast
1:35 PM 37.4 °F 27.5 °F 32.0 °F 81% 29.74 in 4.0 mi North 18.4 mph 23.0 mph N/A   Overcast
1:55 PM 37.4 °F 27.5 °F 32.0 °F 81% 29.74 in 8.0 mi North 18.4 mph 24.2 mph N/A   Overcast
2:15 PM 37.4 °F 28.9 °F 32.0 °F 81% 29.75 in 10.0 mi North 13.8 mph 24.2 mph N/A   Overcast
2:35 PM 37.4 °F 28.9 °F 32.0 °F 81% 29.75 in 5.0 mi North 13.8 mph 24.2 mph N/A   Overcast
2:55 PM 37.4 °F 27.8 °F 30.2 °F 75% 29.75 in 5.0 mi North 17.3 mph 23.0 mph N/A   Overcast
3:15 PM 35.6 °F 25.5 °F 30.2 °F 81% 29.75 in 3.0 mi North 17.3 mph 23.0 mph N/A   Overcast
3:35 PM 35.6 °F 26.2 °F 30.2 °F 81% 29.76 in 3.0 mi North 15.0 mph 20.7 mph N/A   Overcast
3:55 PM 35.6 °F 27.5 °F 30.2 °F 81% 29.76 in 5.0 mi North 11.5 mph - 0.01 in   Overcast
4:15 PM 35.6 °F 26.2 °F 30.2 °F 81% 29.76 in 6.0 mi North 15.0 mph - N/A   Overcast
4:35 PM 33.8 °F 24.8 °F 30.2 °F 87% 29.77 in 7.0 mi NNW 12.7 mph - 0.01 in   Overcast
4:55 PM 33.8 °F 25.8 °F 28.4 °F 81% 29.77 in 5.0 mi North 10.4 mph 17.3 mph 0.02 in   Overcast
5:15 PM 33.8 °F 25.8 °F 28.4 °F 81% 29.78 in 3.0 mi NNW 10.4 mph - N/A   Overcast
5:35 PM 33.8 °F 23.9 °F 28.4 °F 81% 29.78 in 5.0 mi NW 15.0 mph - 0.01 in   Overcast
5:55 PM 33.8 °F 23.9 °F 28.4 °F 81% 29.78 in 7.0 mi NNW 15.0 mph 19.6 mph 0.02 in   Overcast
6:15 PM 35.6 °F 25.2 °F 30.2 °F 81% 29.78 in 10.0 mi NNW 18.4 mph 24.2 mph N/A   Overcast
6:35 PM 33.8 °F 22.8 °F 30.2 °F 87% 29.79 in 7.0 mi NNW 18.4 mph - N/A   Overcast
6:55 PM 33.8 °F 22.8 °F 28.4 °F 81% 29.79 in 2.5 mi NNW 18.4 mph 23.0 mph N/A   Overcast
7:15 PM 33.8 °F 22.2 °F 28.4 °F 81% 29.80 in 5.0 mi NNW 20.7 mph 26.5 mph 0.01 in   Overcast
7:35 PM 33.8 °F 23.9 °F 28.4 °F 81% 29.82 in 10.0 mi NNW 15.0 mph 24.2 mph 0.01 in   Overcast
7:55 PM 33.8 °F 22.8 °F 28.4 °F 81% 29.81 in 10.0 mi North 18.4 mph - 0.01 in   Overcast
8:15 PM 33.8 °F 23.5 °F 28.4 °F 81% 29.81 in 4.0 mi NNW 16.1 mph 21.9 mph N/A   Overcast
8:35 PM 33.8 °F 24.3 °F 28.4 °F 81% 29.83 in 2.5 mi North 13.8 mph - N/A   Overcast
8:55 PM 33.8 °F 25.3 °F 28.4 °F 81% 29.84 in 3.0 mi NNW 11.5 mph 21.9 mph 0.01 in   Overcast
9:15 PM 33.8 °F 24.8 °F 28.4 °F 81% 29.84 in 2.0 mi NNW 12.7 mph - 0.01 in   Overcast
9:35 PM 33.8 °F 23.9 °F 28.4 °F 81% 29.84 in 3.0 mi NW 15.0 mph - 0.01 in   Overcast
10:55 PM 33.8 °F 21.9 °F 28.4 °F 81% 29.87 in 3.0 mi NW 21.9 mph 26.5 mph 0.02 in   Overcast
11:15 PM 33.8 °F 21.9 °F 28.4 °F 81% 29.87 in 5.0 mi NNW 21.9 mph 26.5 mph N/A   Overcast
11:35 PM 33.8 °F 21.6 °F 28.4 °F 81% 29.88 in 4.0 mi NW 23.0 mph 31.1 mph 0.01 in   Overcast
11:55 PM 33.8 °F 22.2 °F 28.4 °F 81% 29.88 in 2.5 mi NW 20.7 mph 28.8 mph 0.01 in   Overcast